Miscellaneous Local Product
Issued by NWS Hastings, NE

Home | Current Version | Previous Version | Text Only | Print | Product List | Glossary Off
Versions: 1 2 3 4 5 6 7 8 9 10 11 12 13 14 15 16 17 18 19 20 21 22 23 24 25 26 27 28 29 30 31 32 33 34 35 36 37 38 39 40 41 42 43 44 45 46 47 48 49 50

000
AXUS43 KGID 230602
MISGRI

GID CWA HOURLY WEATHER ROUNDUP
NATIONAL WEATHER SERVICE HASTINGS NE
100 AM CDT WED APR 23 2014

NOTE: "FAIR" INDICATES FEW OR NO CLOUDS BELOW 12,000 FEET WITH NO
SIGNIFICANT WEATHER AND/OR OBSTRUCTIONS TO VISIBILITY.

...SOUTH CENTRAL NEBRASKA...

CITY           SKY/WX    TMP DP  RH WIND       PRES   REMARKS
GRAND ISLAND   FAIR      57  32  38 SE20G29   29.85F
HASTINGS       FAIR      58  31  35 SE16G32   29.84F
KEARNEY        FAIR      55  32  41 SE18      29.82F
ORD            PTCLDY    56  32  40 SE12      29.81S
YORK           CLOUDY    57  32  38 SE20      29.89F
AURORA         FAIR      57  33  40 SE18G24   29.87F
LEXINGTON      PTCLDY    60  34  38 SE20G26   29.77F
HOLDREGE       FAIR      59  31  35 SE21      29.81S
HEBRON         FAIR      57  32  38 SE14      29.91F

...NEBRASKA PANHANDLE...

CITY           SKY/WX    TMP DP  RH WIND       PRES   REMARKS
CHADRON        MOCLDY    62  42  47 SE28G40   29.52F
ALLIANCE       CLOUDY    58  41  53 SE20      29.60F
SCOTTSBLUFF    PTCLDY    57  44  62 E14       29.57F
SIDNEY         CLOUDY    60  40  47 S17       29.64F

...WESTERN AND NORTH CENTRAL NEBRASKA...

CITY           SKY/WX    TMP DP  RH WIND       PRES   REMARKS
VALENTINE      CLOUDY    60  33  36 E8        29.76R
AINSWORTH      CLOUDY    59  32  35 SE23G29   29.72F
ONEILL         MOCLDY    57  28  33 SE16G22   29.82F
BROKEN BOW     PTCLDY    54  33  45 SE14      29.78F
IMPERIAL       PTCLDY    63  45  51 S23G32    29.68F
NORTH PLATTE   CLOUDY    61  36  39 SE15G24   29.72S
MCCOOK         MOCLDY    63  36  36 S28G41    29.72F

...EASTERN NEBRASKA...

CITY           SKY/WX    TMP DP  RH WIND       PRES   REMARKS
NORFOLK        FAIR      57  32  38 SE18      29.89S
SO SIOUX CITY  FAIR      57  34  41 SE14      29.95S
TEKAMAH        FAIR      54  33  45 SE12      29.96S
COLUMBUS       FAIR      57  32  38 SE14G20   29.91F
ALBION         FAIR      56  31  38 SE15      29.87F
OMAHA EPPLEY   FAIR      58  33  39 SE16      29.96F
OFFUTT AFB     FAIR      52  36  54 E8        29.97S
MILLARD        FAIR      58  35  42 SE6       29.96S
LINCOLN        CLOUDY    61  33  35 SE15      29.96R
NEBRASKA CITY  FAIR      57  33  41 SE9       29.97S
BEATRICE       MOCLDY    59  32  36 SE9       29.95R
FALLS CITY     FAIR      52  36  54 SE6       29.96F

...NORTHERN KANSAS...

CITY           SKY/WX    TMP DP  RH WIND       PRES   REMARKS
GOODLAND       MOCLDY    57  48  72 S20       29.73F
HILL CITY      FAIR      60  38  43 SE15G23   29.80F
PHILLIPSBURG   CLEAR     64  32  29 SE20G29   29.81F
SMITH CENTER   CLEAR     59  32  36 SE18G24   29.84R
BELOIT         CLEAR     61  32  33 SE14G21   29.86F
HAYS           FAIR      59  36  41 SE20      29.85F
RUSSELL        CLOUDY    59  35  40 SE15      29.85F
CONCORDIA      FAIR      60  33  36 SE20G25   29.90F
SALINA         MOCLDY    61  33  35 SE10      29.93R
TOPEKA         FAIR      53  37  54 E5        29.98F



USA.gov is the U.S. government's official web portal to all federal, state and local government web resources and services.